Flag Weather past 2 weeks in Santa María, Rio Grande do Sul, Brazil

Now
75 °F

Passing clouds.


Feels Like: 75 °F
Forecast: 64 / 85 °F
Wind: 6 mph from Southeast

Location: Porto Alegre Aero-Porto

Current Time: Nov 25, 2014 at 11:45:31 PM

Latest Report: Nov 25, 2014 at 11:00 PM


Visibility: N/A

Pressure: 29.80 "Hg

Humidity: 83%

Dew point: 70 °F

Location of Santa MaríaLocation

Historic Weather in Santa María — Graph

°F

Santa María temperature yesterday

Maximum temperature yesterday: 93 °F (at 5:00 PM)
Minimum temperature yesterday: 61 °F (at 3:00 AM)
Average temperature yesterday: 77 °F

Past Weeks' High & Low Weather Summary

 TemperatureHumidityPressure
High93 °F (Nov 24, 5:00 PM)100% (Nov 15, 7:00 AM)30.09 "Hg (Nov 15, 7:00 AM)
Low36 °F (Nov 25, 8:00 AM)25% (Nov 18, 3:00 PM)29.68 "Hg (Nov 12, 4:00 AM)
Average74 °F69%29.90 "Hg
* Reported Nov 10 11:00 PM — Nov 25 11:00 PM, Santa María, Weather by CustomWeather, © 2014

Note: Actual official high and low records may vary slightly from our data, if they occured in-between our weather recording intervals... More about our weather records

Advertising

Santa María weather history for previous 24 hours

 ConditionsComfort  
Time TempWeatherWind HumidityBarometerVisibility
11:00 PM
Nov 25
75 °FPassing clouds.6 mph83%29.80 "HgN/A
10:00 PM73 °FPassing clouds.7 mph89%29.80 "HgN/A
9:00 PM75 °FMostly cloudy.9 mph83%29.80 "Hg5 mi
8:00 PM75 °FMore clouds than sun.12 mph83%29.77 "Hg5 mi
7:00 PM77 °FBroken clouds.10 mph83%29.77 "HgN/A
6:00 PM77 °FScattered clouds.13 mph79%29.74 "HgN/A
5:00 PM79 °FPartly sunny.16 mph65%29.77 "HgN/A
4:00 PM84 °FScattered clouds.12 mph62%29.74 "HgN/A
3:00 PM88 °FSunny.6 mph46%29.74 "Hg10 mi
2:00 PM84 °FSunny.9 mph55%29.74 "Hg10 mi
1:00 PM81 °FSunny.8 mph70%29.80 "Hg10 mi
12:00 PM77 °FPartly sunny.10 mph83%29.80 "HgN/A
11:00 AM75 °FBroken clouds.6 mph89%29.83 "Hg6 mi
10:00 AM73 °FLight rain. Mostly cloudy.6 mph89%29.89 "Hg3 mi
9:00 AMN/AThunderstorms.8 mphN/AN/A2 mi
8:00 AM36 °FThunderstorms. Mostly cloudy.10 mph100%29.86 "Hg2 mi
7:00 AM73 °FThunderstorms. Fog.18 mph89%29.86 "Hg2 mi
6:00 AM75 °FClear.5 mph83%29.74 "Hg10 mi
5:00 AM77 °FClear.2 mph79%29.74 "Hg10 mi
4:00 AM77 °FClear.3 mph79%29.74 "Hg10 mi
3:00 AM77 °FClear.6 mph79%29.77 "Hg10 mi
2:00 AM79 °FClear.2 mph74%29.77 "Hg10 mi
1:00 AM77 °FClear.7 mph79%29.77 "Hg10 mi
12:00 AM79 °FClear.9 mph74%29.80 "Hg10 mi
11:00 PM
Nov 24
79 °FClear.9 mph74%29.80 "Hg10 mi
Weather by CustomWeather, © 2014

See weather overviewHow to use our weather pages